Miscellaneous Local Product
Issued by NWS North Platte, NE

Home | Current Version | Previous Version | Graphics & Text | Print | Product List | Glossary On
Versions: 1 2 3 4 5 6 7 8 9 10 11 12 13 14 15 16 17 18 19 20 21 22 23 24 25 26 27 28 29 30 31 32 33 34 35 36 37 38 39 40 41 42 43 44 45 46 47 48 49 50
000
AXUS43 KLBF 181610
MISLBF


WESTERN AND NORTH CENTRAL NEBRASKA HOURLY WEATHER ROUNDUP
NATIONAL WEATHER SERVICE NORTH PLATTE NE
1000 AM CST SUN FEB 18 2018

NOTE: "FAIR" INDICATES FEW OR NO CLOUDS BELOW 12,000 FEET WITH NO
SIGNIFICANT WEATHER AND/OR OBSTRUCTIONS TO VISIBILITY.

NOTE: STATIONS NOT REPORTING VARIABLES SUCH AS SKY/WEATHER OR
PRESSURE ARE PROVIDED BY RAWS AND APRS NETWORKS AND ARE NOT UNDER
NATIONAL WEATHER SERVICE QUALITY CONTROL.

...OBSERVATIONS IN AND NEAR THE EASTERN PANHANDLE OF NEBRASKA...

CITY           SKY/WX    TMP DP  RH WIND       PRES   REMARKS
PINE RIDGE     PTSUNNY   32  24  72 E8        29.53R WCI  25
GORDON         FAIR      33  23  67 N8        29.53R WCI  26
CHADRON        PTSUNNY   33  27  78 SE8       29.54R WCI  26
ALLIANCE       PTSUNNY   48  19  31 W7        29.47F
SIDNEY         MOSUNNY   54  18  24 W8        29.53F
$$

...OBSERVATIONS IN NORTHERN NEBRASKA AND FAR SOUTHERN SOUTH DAKOTA...

CITY           SKY/WX    TMP DP  RH WIND       PRES   REMARKS
WINNER         FAIR      41  27  57 W8        29.50R
VALENTINE      CLOUDY    45  23  42 W6        29.51R
AINSWORTH      CLOUDY    40  25  54 S23       29.47F WCI  30
O`NEILL        CLOUDY    43  27  53 S23G33    29.52F
THEDFORD       CLOUDY    40  24  53 SW14G22   29.52F WCI  32
BROKEN BOW     CLOUDY    40  27  59 S13       29.58S WCI  32
ORD            CLOUDY    42  26  53 S18       29.58F
ALBION         CLOUDY    43  28  54 S14       29.64S
$$

...OBSERVATIONS IN SOUTHWEST NEBRASKA AND FAR NORTHEAST COLORADO...

CITY           SKY/WX    TMP DP  RH WIND       PRES   REMARKS
WRAY           FAIR      50  19  29 SW15      29.53F
HOLYOKE        FAIR      41  28  60 W7        29.53F
IMPERIAL       CLOUDY    39  25  57 S5        29.54F
OGALLALA       CLOUDY    35  26  68 CALM      29.54S
NORTH PLATTE   CLOUDY    40  27  59 SW8       29.56F WCI  34
MCCOOK         CLOUDY    43  30  60 S18       29.56F
LEXINGTON      CLOUDY    43  27  53 S23G30    29.59F
GOTHENBURG       N/A     42  26  53 S6          N/A
CALLAWAY         N/A     38  30  72 S5          N/A  WCI  34
$$

...OBSERVATIONS IN CENTRAL LINCOLN COUNTY AREA...

CITY           SKY/WX    TMP DP  RH WIND       PRES   REMARKS
N.P. AIRPORT   CLOUDY    40  27  59 SW8       29.56F WCI  34
$$

...OBSERVATIONS ACROSS THE ROCKIES AND WESTERN HIGH PLAINS...

CITY           SKY/WX    TMP DP  RH WIND       PRES   REMARKS
RAPID CITY     CLOUDY    29  26  89 N21       29.53R WCI  16
SCOTTSBLUFF    MOSUNNY   54  16  22 SW14      29.49F
CHEYENNE       PTSUNNY   52   9  17 W28G37    29.52F
DENVER         PTSUNNY   54   9  16 SW14      29.54S
BERTHOUD PASS  FAIR      21  10  63 W54G85    29.63S WCI  -2
COPPER MTN     LGT SNOW  28   1  31 SW24G38   29.79F WCI  14
MONARCH PASS   SUNNY     19   1  45 W41G49    29.93F WCI  -2
ASPEN          SUNNY     32  13  45 CALM      29.76F
LARAMIE        MOSUNNY   36  12  37 SW18G29   29.52F WCI  26
CASPER         CLOUDY    31  24  75 MISG      29.48R
$$

...OBSERVATIONS ACROSS THE NORTHERN PLAINS...

CITY           SKY/WX    TMP DP  RH WIND       PRES   REMARKS
BISMARCK       LGT SNOW  12   9  87 NE14G28   29.71F FOG     WCI  -3
FARGO          LGT SNOW  20  17  88 NE14      29.70F FOG     WCI   7
PIERRE         CLOUDY    25  22  88 NW21      29.50R WCI  11
SIOUX FALLS    CLOUDY    39  27  62 S23G35    29.53F WCI  28
$$

...OBSERVATIONS ACROSS THE CENTRAL AND SOUTHERN PLAINS...

CITY           SKY/WX    TMP DP  RH WIND       PRES   REMARKS
OMAHA          CLOUDY    42  30  62 S16G26    29.81S
GRAND ISLAND   MOSUNNY   45  24  43 S28G40    29.64F
KANSAS CITY    CLOUDY    48  27  44 S23G32    30.00F
WICHITA        CLOUDY    46  39  76 S25G33    29.93F
DODGE CITY     CLOUDY    49  27  42 S32G46    29.76F
OKLAHOMA CITY  CLOUDY    45  43  93 S18       30.05F
DALLAS         DRZL/FOG  51  49  92 SE8       30.13S VSB 1/2
AMARILLO       CLOUDY    48  33  56 SW23G31   29.93F
$$




USA.gov is the U.S. government's official web portal to all federal, state and local government web resources and services.